ICEYE-X18

导读 | 星芒AI

ICEYE-X18 是 ICEYE 公司研发的一颗合成孔径雷达(SAR)成像卫星,具备高分辨率和全天候、全天时成像能力。该卫星采用小型卫星平台,搭载先进的 SAR 传感器,能够提供亚米级分辨率的地球观测数据。ICEYE-X18 作为 ICEYE 卫星星座的一部分,支持多种成像模式,广泛应用于环境监测、灾害响应、农业管理和安全监控等领域,提升了全球范围内的实时遥感服务能力。

基本信息
目录编号:
52749
目录名称:
ICEYE-X18
国际标识:
2022-057T
轨道中心:
EARTH
卫星名称:
ICEYE-X18
卫星全名:
--
卫星状态:
已陨落 最后检测时间 2025-03-14
发射日期:
2022-05-25 UTC
国别 :
巴西 (BR)
星等 :
--
轨道信息
数据来源 国际轨道数据
星历时间: 2025-03-12T02:12:12+0800
轨道信息已过期278天
半长轴: 6530.254km
偏心率: 0.0011682
轨道倾角: 97.545°
近地点辐角 275.896°
升交点赤经 211.798°
平近点角 84.101°
近地点: 144.49km
远地点: 159.748km
周期: 87.530分钟
每日圈数: 16.451584
详细信息
使用方式:
暂无